20071210,80
20080310,80
20080610,30
20080910,30
20081210,0
20090310,0
20090610,0
20090910,0
20091210,0
20100310,0
20100610,0
20100910,0
20101210,0
20110310,0
20110610,0
20110912,0
20111212,0
20120312,0
20120611,0
20120910,0
20121210,0
20130311,0
20130610,0
20130910,0
20131210,0
20140310,0
20140610,0
20140910,0
20141210,0
20150310,0
20150610,0
20150910,0
20151210,0
20160310,0
20160610,0
20160912,0
20161212,0
20170310,0
20170612,0
20170911,0
20171211,0
20180312,0
20180611,0
20180910,0
20181210,0
20190311,0
20190610,0
20190910,0
20191210,0
20200310,0
20200610,0
20200910,0
20201210,0
20210310,0
20210610,0
20210910,0
20211210,60
20220310,40
20220610,40
20220912,40
20221212,40
20230310,40
20230612,40
20230911,280
20231211,290
20240311,330
